Location: ActonStarParty
(42.4766°N, 71.4538°W)
Time: 04:31:45
(UTC-04:00)

ISS - Visible Passes

Search period start: 24 October 2014 00:00
Search period end: 02 November 2014 23:00
Orbit: 413 x 416 km, 51.6° (Epoch: 24 October)

Date Brightness Start Highest point End Pass type
(mag) Time Alt. Az. Time Alt. Az. Time Alt. Az.
24 Oct -2.5 19:40:44 10° WNW 19:43:57 46° SW 19:44:04 46° SSW visible
25 Oct -3.3 18:51:28 10° WNW 18:54:49 82° SW 18:57:20 16° SE visible
26 Oct -0.7 19:39:39 10° W 19:41:58 18° SW 19:43:41 13° SSW visible
27 Oct -1.4 18:49:53 10° WNW 18:52:52 30° SW 18:55:49 10° SSE visible
29 Oct 0.0 18:49:18 10° WSW 18:50:33 12° SW 18:51:48 10° SSW visible
